Location: Nelson
(41.2830°S, 173.2830°E)
Time: 19:09:15
(UTC+12:00)

IRIDIUM 103 - Pass Details

Date: 14 May 2021
Orbit: 776 x 779 km, 86.4° (Epoch: 19 June)

Event Time Altitude Azimuth Distance (km) Brightness Sun altitude
Rises 18:00:01 0° 179° (S) 3,299 7.4 -8.0°
Reaches altitude 10° 18:02:27 10° 175° (S) 2,364 6.6 -8.5°
Maximum altitude 18:07:40 58° 95° (E) 915 4.4 -9.4°
Drops below altitude 10° 18:12:50 10° 16° (NNE) 2,335 6.8 -10.3°
Sets 18:15:12 0° 12° (NNE) 3,254 7.6 -10.7°
